Date,TemperatureHighF,TemperatureAvgF,TemperatureLowF,DewpointHighF,DewpointAvgF,DewpointLowF,HumidityHigh,HumidityAvg,HumidityLow,PressureMaxIn,PressureMinIn,WindSpeedMaxMPH,WindSpeedAvgMPH,GustSpeedMaxMPH,PrecipitationSumIn
2013-1-1,27.2,21.0,14.3,21.9,13.1,8.6,81,71,58,30.14,30.00,9,2,0,0.00
2013-1-2,24.5,20.0,13.6,18.8,15.2,9.9,86,81,73,30.20,30.07,14,3,15,0.00
2013-1-3,28.1,21.8,14.7,25.1,17.3,7.8,90,82,73,30.16,30.05,16,4,20,0.00
2013-1-4,29.4,26.1,22.6,24.1,20.4,18.1,87,79,68,30.17,29.99,22,7,25,0.00
2013-1-5,32.5,25.7,17.2,29.8,22.4,15.5,94,87,76,30.28,30.02,11,3,0,0.00
2013-1-6,34.0,32.4,30.9,32.2,29.4,26.4,94,89,82,30.24,29.89,15,4,15,0.02
2013-1-7,34.2,30.3,27.4,26.4,24.5,21.9,86,79,71,30.36,30.14,21,4,24,0.00
2013-1-8,36.2,27.8,21.5,28.3,23.9,19.4,93,85,72,30.24,30.14,6,1,0,0.01
2013-1-9,45.3,36.7,26.4,34.3,28.2,22.8,94,73,44,30.41,30.02,29,6,29,0.02
2013-1-10,42.8,33.2,26.3,32.5,27.8,23.8,92,81,57,30.56,30.17,5,2,0,0.06
2013-1-11,55.6,43.4,34.4,51.4,41.5,32.5,97,93,81,30.17,29.74,11,3,15,0.65
2013-1-12,57.9,50.3,45.1,51.0,47.4,43.8,96,90,76,29.90,29.79,11,2,12,0.00
2013-1-13,49.1,37.4,29.0,48.0,36.1,27.2,97,95,90,30.01,29.66,19,3,23,0.77
2013-1-14,28.9,22.9,16.8,27.1,17.9,14.1,93,81,72,30.42,30.01,20,5,23,0.00
2013-1-15,29.2,21.3,13.3,20.0,16.4,11.4,93,82,63,30.44,30.15,5,0,0,0.00
2013-1-16,37.0,28.0,18.7,28.0,19.3,14.4,92,72,40,30.15,29.80,24,4,25,0.00
2013-1-17,33.9,28.6,16.9,28.7,20.6,5.3,85,72,56,30.29,29.93,21,5,25,0.00
2013-1-18,33.4,23.9,12.0,23.9,16.0,8.4,88,72,56,30.43,29.97,18,3,27,0.00
2013-1-19,46.0,39.1,32.9,35.7,29.6,23.9,74,68,59,29.97,29.53,24,6,31,0.00
2013-1-20,43.3,21.2,14.5,35.1,10.2,4.1,73,62,44,30.16,29.52,35,10,43,0.00
2013-1-21,15.6,11.6,2.7,12.4,4.6,-4.6,89,73,52,30.14,29.95,21,4,25,0.00
2013-1-22,8.1,3.2,-2.8,1.3,-4.1,-10.3,84,70,57,30.30,30.11,19,5,20,0.00
2013-1-23,15.9,9.2,1.6,9.5,3.8,-2.1,88,78,68,30.31,30.09,12,3,15,0.00
2013-1-24,17.7,12.2,7.0,9.6,4.0,-1.5,89,71,44,30.59,30.12,9,2,13,0.00
2013-1-25,20.1,16.4,12.4,15.6,11.9,4.8,91,82,71,30.51,30.02,6,1,0,0.00
2013-1-26,27.0,20.6,16.4,17.0,14.8,11.9,91,79,57,30.45,30.05,11,2,12,0.00
2013-1-27,28.8,21.3,12.6,27.3,-1.1,-99.9,94,82,63,30.48,30.12,10,2,0,0.00
2013-1-28,44.7,36.1,28.8,43.9,35.1,27.1,98,96,93,30.15,29.83,12,2,15,0.33
2013-1-29,56.1,45.0,34.8,55.3,44.2,33.8,98,97,96,30.00,29.43,11,2,13,0.91
2013-1-30,59.9,49.3,31.3,57.9,47.8,28.2,98,94,87,29.44,29.07,25,5,31,0.48
2013-1-31,31.4,21.2,14.8,28.3,15.1,9.7,89,77,65,29.87,29.17,32,10,38,0.00
2013-2-1,18.2,13.3,7.9,11.3,7.4,1.5,88,77,61,30.27,29.86,22,7,24,0.00
2013-2-2,21.5,15.0,8.6,18.5,11.1,4.5,89,84,79,30.22,29.95,12,2,12,0.00
2013-2-3,20.0,12.3,3.9,16.5,2.7,-99.9,90,82,69,30.02,29.85,19,3,21,0.00
2013-2-4,22.9,18.0,14.7,18.2,14.1,7.4,90,85,70,30.03,29.88,6,1,0,0.00
2013-2-5,26.6,21.3,15.3,25.0,10.2,-99.9,94,86,66,29.94,29.81,12,2,20,0.00
2013-2-6,31.4,23.0,14.9,23.2,2.6,-99.9,91,76,53,30.29,29.94,9,2,14,0.00
2013-2-7,37.3,29.1,23.2,28.3,6.9,-99.9,90,77,69,30.28,29.86,8,3,0,0.03
2013-2-8,27.9,25.0,17.7,26.7,6.4,-99.9,95,88,77,30.33,29.76,18,4,22,0.00
2013-2-9,31.6,20.6,9.5,19.6,-1.2,-99.9,93,80,54,30.44,30.28,8,1,0,0.00
2013-2-10,38.1,28.8,18.3,35.1,24.6,16.6,93,85,66,30.29,29.69,8,2,15,0.27
2013-2-11,44.7,36.8,30.7,43.1,4.9,-99.9,95,84,70,29.83,29.53,26,7,32,0.06
2013-2-12,31.1,29.3,27.1,26.3,-2.7,-99.9,85,78,74,30.02,29.83,24,6,25,0.00
2013-2-13,38.8,29.6,24.9,26.9,12.2,-99.9,89,78,58,29.92,29.72,12,2,0,0.00
2013-2-14,38.1,32.7,26.3,34.7,13.1,-99.9,94,88,79,29.81,29.65,28,4,38,0.01
2013-2-15,33.1,27.0,22.4,28.1,-6.4,-99.9,82,69,56,30.09,29.81,20,5,20,0.00
2013-2-16,24.0,18.9,12.6,19.7,-0.1,-99.9,91,79,64,30.08,29.96,13,3,17,0.00
2013-2-17,22.2,14.3,8.0,12.1,-7.7,-99.9,90,73,51,30.22,30.04,12,2,16,0.00
2013-2-18,43.5,27.6,10.9,34.9,6.7,-99.9,85,74,59,30.22,29.60,8,2,13,0.00
2013-2-19,43.6,27.9,17.0,39.8,8.3,-99.9,93,82,68,29.90,29.39,25,9,33,0.13
2013-2-20,20.8,18.2,15.2,15.4,-4.9,-99.9,85,74,65,30.23,29.90,23,8,27,0.00
2013-2-21,24.5,19.8,17.0,17.6,-2.8,-99.9,87,78,64,30.38,30.22,11,2,16,0.00
2013-2-22,32.4,25.6,19.7,31.4,6.6,-99.9,96,92,86,30.27,29.88,10,3,0,0.00
2013-2-23,32.1,29.5,24.6,30.8,1.6,-99.9,96,78,64,29.90,29.84,14,5,17,0.00
2013-2-24,34.3,27.4,21.1,26.3,6.1,-99.9,90,81,67,30.14,29.88,14,3,19,0.00
2013-2-25,40.7,30.4,20.5,27.9,7.2,-99.9,94,76,53,30.21,30.08,5,1,0,0.02
2013-2-26,34.6,30.6,26.8,31.4,11.9,-99.9,96,83,71,30.11,29.49,13,5,15,0.19
2013-2-27,34.5,33.1,32.4,33.5,2.8,-99.9,100,97,94,29.55,29.43,8,1,0,0.25
2013-2-28,36.1,32.5,28.5,34.6,9.9,-99.9,97,91,82,29.93,29.52,11,3,17,0.23
2013-3-1,28.5,25.1,23.4,24.6,2.7,-99.9,87,85,82,30.09,29.93,10,4,0,0.00
2013-3-2,25.3,23.3,21.6,20.9,0.8,-99.9,88,83,78,30.07,30.03,7,2,0,0.00
2013-3-3,27.7,21.6,15.2,17.9,0.0,-99.9,87,78,62,30.05,29.98,13,3,15,0.00
2013-3-4,36.7,23.9,13.5,18.8,5.8,-99.9,89,69,43,30.14,30.04,9,2,0,0.01
2013-3-5,35.1,26.7,19.0,25.3,11.9,-99.9,90,78,64,30.13,29.82,11,4,15,0.00
2013-3-6,40.5,32.5,25.6,30.0,14.7,-99.9,89,80,65,30.19,29.83,9,2,0,0.00
2013-3-7,34.9,31.3,23.9,30.5,9.7,-99.9,91,80,64,30.38,30.17,12,1,13,0.00
2013-3-8,45.5,32.4,21.5,28.9,10.5,-99.9,87,71,49,30.48,30.37,8,1,0,0.00
2013-3-9,43.1,34.4,24.2,32.1,17.9,-99.9,95,79,58,30.40,30.02,7,1,0,0.00
2013-3-10,61.1,48.9,35.9,47.5,26.3,-99.9,85,68,52,30.02,29.76,14,2,15,0.00
2013-3-11,55.0,48.7,36.6,48.8,27.3,-99.9,96,83,61,29.78,29.41,17,4,22,0.31
2013-3-12,36.6,33.0,28.6,32.4,18.1,-99.9,94,85,76,29.89,29.63,17,6,21,0.01
2013-3-13,31.2,27.5,23.5,27.3,4.7,-99.9,93,76,55,30.16,29.83,24,6,25,0.00
2013-3-14,38.9,29.6,21.2,21.8,7.5,-99.9,81,61,44,30.24,30.06,13,4,22,0.00
2013-3-15,37.2,33.4,30.6,34.0,15.0,-99.9,95,82,57,30.06,29.83,15,4,19,0.04
2013-3-16,33.1,27.9,24.7,31.8,5.9,-99.9,95,88,74,30.02,29.75,7,2,0,0.00
2013-3-17,30.7,25.3,19.9,23.5,6.9,-99.9,85,69,53,30.26,30.01,12,3,13,0.00
2013-3-18,34.4,28.3,20.4,33.4,15.8,-99.9,96,89,77,30.18,29.53,18,4,20,0.00
2013-3-19,33.7,26.2,20.9,30.8,1.2,-99.9,90,79,68,29.91,29.59,27,10,29,0.01
2013-3-20,26.4,22.9,16.6,18.6,1.2,-99.9,78,70,61,29.93,29.87,19,6,21,0.00
2013-3-21,29.9,22.5,13.8,24.5,7.8,-99.9,89,81,70,29.92,29.83,18,6,22,0.00
2013-3-22,37.9,29.2,23.4,23.4,9.5,-99.9,78,69,52,30.00,29.91,19,5,19,0.00
2013-3-23,38.5,29.6,21.6,25.6,15.1,-99.9,91,76,57,30.08,29.99,6,1,0,0.00
2013-3-24,35.7,29.2,23.2,27.5,12.4,-99.9,90,79,58,30.05,29.62,13,4,15,0.00
2013-3-25,38.4,33.5,29.3,29.0,16.5,-99.9,82,74,65,29.88,29.55,15,5,16,0.00
2013-3-26,41.7,35.6,31.2,31.7,18.0,-99.9,87,76,60,30.08,29.88,14,3,17,0.00
2013-3-27,44.8,37.1,27.7,30.3,16.2,-99.9,85,67,46,30.16,30.08,17,6,25,0.00
2013-3-28,51.0,39.5,28.7,28.5,17.4,-99.9,80,59,38,30.23,30.16,15,3,16,0.00
2013-3-29,52.7,40.5,29.4,26.4,12.7,-99.9,73,51,29,30.25,30.16,11,2,14,0.00
2013-3-30,54.6,43.0,29.0,29.9,17.0,-99.9,73,50,24,30.18,29.90,12,2,15,0.00
2013-3-31,56.1,45.0,35.4,42.4,22.7,-99.9,89,69,41,29.90,29.58,20,4,22,0.00
2013-4-1,42.5,31.2,25.9,33.9,12.6,-99.9,84,59,39,30.07,29.63,20,6,23,0.00
2013-4-2,39.2,29.8,22.3,19.2,7.5,-99.9,84,56,35,30.23,30.07,21,5,26,0.00
2013-4-3,42.1,31.2,21.7,20.8,8.1,-99.9,72,51,30,30.41,30.22,11,2,16,0.00
2013-4-4,54.9,39.6,24.4,21.6,11.7,-99.9,76,45,21,30.34,29.92,17,2,17,0.00
2013-4-5,47.0,40.7,32.0,31.3,16.7,-99.9,80,50,30,30.18,29.90,10,2,15,0.00
2013-4-6,49.8,38.5,28.7,27.7,14.6,-99.9,77,54,33,30.23,29.77,10,2,13,0.00
2013-4-7,57.4,49.7,39.2,46.3,25.8,-99.9,78,62,39,29.99,29.58,26,5,32,0.00
2013-4-8,64.6,44.8,32.3,56.1,34.1,-99.9,94,83,58,30.00,29.67,24,3,31,0.12
2013-4-9,49.3,45.0,39.5,45.4,33.8,-99.9,94,90,80,30.06,29.85,13,2,14,0.02
2013-4-10,45.8,41.2,37.6,44.2,15.3,-99.9,96,95,93,29.99,29.79,11,3,18,0.36
2013-4-11,38.6,36.5,35.1,37.6,16.5,-99.9,100,96,93,29.96,29.60,16,5,17,0.81
2013-4-12,40.8,37.4,33.7,39.2,16.6,-99.9,99,91,77,29.74,29.49,20,4,20,0.32
2013-4-13,40.8,37.6,33.8,37.3,22.1,-99.9,93,76,61,29.96,29.74,27,7,28,0.03
2013-4-14,46.7,38.4,32.1,37.9,23.3,-99.9,88,78,70,30.10,29.92,6,2,0,0.01
2013-4-15,67.9,54.4,36.5,55.1,42.8,-99.9,90,74,57,29.95,29.84,13,3,16,0.03
2013-4-16,61.8,53.5,47.4,54.2,22.2,-99.9,93,71,43,30.17,29.82,16,4,18,0.01
2013-4-17,56.7,46.4,38.0,42.9,28.5,-99.9,93,67,43,30.30,29.99,8,3,0,0.82
2013-4-18,77.8,57.4,42.9,65.6,42.7,-99.9,95,90,62,30.01,29.51,22,4,28,0.51
2013-4-19,58.2,45.3,35.1,57.1,19.3,-99.9,99,83,64,29.70,29.26,26,8,34,0.20
2013-4-20,38.0,33.1,28.6,30.8,14.9,-99.9,93,65,49,30.43,29.70,20,6,26,0.00
2013-4-21,47.7,35.6,22.8,29.3,18.4,-99.9,91,65,44,30.61,30.43,7,1,0,0.00
2013-4-22,61.5,46.3,28.6,35.7,22.9,-99.9,93,56,20,30.46,30.17,6,1,0,0.00
2013-4-23,69.7,54.1,39.8,53.2,37.9,-99.9,95,66,40,30.17,29.76,14,2,18,0.15
2013-4-24,54.7,39.9,33.6,53.4,21.6,-99.9,96,90,72,30.10,29.68,16,4,20,0.61
2013-4-25,49.9,40.6,31.9,38.8,31.4,26.7,90,71,43,30.32,30.08,19,4,25,0.05
2013-4-26,59.1,46.0,30.4,38.8,28.5,-99.9,88,61,40,30.44,30.30,10,1,14,0.00
2013-4-27,68.8,54.1,36.7,41.6,30.2,-99.9,93,57,23,30.33,30.07,8,1,0,0.00
2013-4-28,54.6,51.8,46.5,52.9,37.1,-99.9,97,80,52,30.07,29.79,5,1,0,0.33
2013-4-29,70.0,58.7,51.9,55.4,34.5,-99.9,97,83,56,29.90,29.79,10,1,12,0.01
2013-4-30,71.6,61.0,52.4,58.0,54.3,50.8,96,80,59,30.03,29.88,11,2,14,0.07
2013-5-1,80.5,66.4,51.2,59.0,47.4,-99.9,94,68,41,30.17,30.01,8,1,12,0.00
2013-5-2,79.3,66.3,51.3,56.4,44.3,-99.9,89,59,38,30.19,30.08,7,1,0,0.00
2013-5-3,77.6,66.2,54.6,56.0,44.2,32.0,65,47,21,30.08,30.00,7,2,0,0.00
2013-5-4,69.0,62.0,53.0,47.8,35.0,-99.9,75,51,32,30.07,30.00,8,2,0,0.00
2013-5-5,71.5,61.7,50.4,45.6,39.5,30.6,79,47,23,30.06,29.97,7,1,0,0.00
2013-5-6,73.9,60.7,44.8,49.4,43.3,38.0,82,54,37,30.02,29.93,7,1,0,0.00
2013-5-7,75.3,63.0,48.2,54.5,47.2,38.7,77,58,37,30.01,29.93,7,1,0,0.00
2013-5-8,80.6,65.4,54.6,57.1,49.8,44.1,85,59,34,29.97,29.87,5,0,0,0.01
2013-5-9,80.2,66.7,50.4,55.9,42.9,-99.9,94,60,29,29.91,29.83,8,0,0,0.00
2013-5-10,68.7,57.1,41.3,61.6,42.3,-99.9,96,84,55,29.85,29.68,13,2,18,0.15
2013-5-11,61.7,46.6,38.8,48.1,31.9,-99.9,93,81,54,29.85,29.68,21,3,28,0.00
2013-5-12,45.9,39.7,32.7,33.8,21.5,-99.9,88,68,49,30.06,29.83,24,5,24,0.00
2013-5-13,54.5,41.0,29.1,31.0,18.0,-99.9,84,58,30,30.15,30.06,12,2,18,0.00
2013-5-14,76.8,56.0,40.7,52.1,40.9,30.7,87,58,38,30.08,29.68,5,0,0,0.00
2013-5-15,81.4,67.4,51.1,59.8,50.6,45.5,96,60,30,29.72,29.53,22,3,25,0.01
2013-5-16,82.5,67.8,54.0,50.5,33.6,-99.9,73,47,27,29.96,29.71,12,1,12,0.00
2013-5-17,74.3,60.5,48.4,47.7,43.4,39.0,76,55,35,30.10,29.96,4,0,0,0.00
2013-5-18,81.4,66.4,54.3,50.1,39.7,-99.9,70,50,30,30.10,29.97,4,0,0,0.00
2013-5-19,89.1,70.5,53.0,65.5,57.0,46.1,83,64,43,29.99,29.82,5,0,0,0.00
2013-5-20,90.8,75.4,60.9,72.9,64.9,58.9,95,73,42,29.87,29.69,9,1,17,0.00
2013-5-21,84.0,75.1,65.1,68.4,50.2,-99.9,90,69,46,29.75,29.64,10,1,15,0.01
2013-5-22,80.6,68.7,62.1,66.1,62.8,60.0,94,83,51,29.67,29.55,12,1,19,0.20
2013-5-23,62.3,52.5,41.5,60.4,50.3,38.7,96,92,84,30.10,29.62,9,1,0,0.19
2013-5-24,57.5,45.8,37.5,39.4,36.2,32.6,93,71,44,30.33,30.10,9,1,0,0.00
2013-5-25,67.5,50.3,33.7,41.7,36.3,31.9,95,63,34,30.38,30.25,6,0,0,0.00
2013-5-26,72.9,55.1,38.0,42.5,36.8,31.3,92,56,27,30.31,30.19,7,0,0,0.00
2013-5-27,62.6,50.3,40.3,49.8,42.6,34.9,96,76,41,30.23,29.98,3,0,0,0.55
2013-5-28,74.0,60.7,50.6,69.9,59.1,49.5,98,95,82,29.98,29.76,5,0,0,0.23
2013-5-29,81.9,73.3,65.0,67.8,64.9,61.2,92,76,52,29.93,29.71,15,2,18,0.00
2013-5-30,89.2,73.1,63.6,75.7,66.9,61.2,95,82,54,30.00,29.90,11,0,20,0.22
2013-5-31,80.7,71.1,65.7,69.6,66.9,64.4,96,87,67,29.93,29.78,13,1,18,0.30
2013-6-1,80.2,69.9,62.4,67.7,58.7,-99.9,96,83,60,29.79,29.62,13,2,16,0.21
2013-6-2,69.6,63.8,52.5,63.9,46.6,-99.9,91,78,64,29.92,29.59,15,4,20,0.00
2013-6-3,69.2,55.6,41.1,45.7,41.4,37.6,91,61,36,30.03,29.92,7,1,0,0.00
2013-6-4,75.0,59.8,45.5,50.8,44.2,32.2,93,60,34,30.15,30.03,4,0,0,0.00
2013-6-5,75.8,61.5,47.0,49.3,43.4,33.2,79,53,32,30.13,29.94,3,0,0,0.00
2013-6-6,68.4,60.0,55.6,55.5,48.9,42.4,78,67,60,29.95,29.81,4,0,0,0.00
2013-6-7,60.7,55.4,50.2,53.9,37.1,-99.9,94,85,76,29.87,29.82,4,0,0,0.00
2013-6-8,74.4,62.6,55.3,55.2,52.4,50.4,85,71,46,30.02,29.86,4,0,0,0.00
2013-6-9,76.4,65.4,54.9,60.0,55.2,51.8,92,71,54,30.07,29.91,5,0,0,0.00
2013-6-10,69.8,64.5,59.0,69.2,57.6,-99.9,98,95,66,29.91,29.67,2,0,0,1.44
2013-6-11,80.1,70.5,62.2,66.9,56.6,-99.9,98,82,58,29.83,29.70,11,2,15,0.00
2013-6-12,76.2,69.5,62.4,69.1,64.8,59.8,94,85,75,29.86,29.57,5,0,0,0.76
2013-6-13,78.8,68.4,58.0,63.8,53.3,-99.9,100,76,47,29.86,29.48,12,1,15,1.02
2013-6-14,79.2,66.9,57.2,57.9,54.4,49.7,88,66,38,30.02,29.86,8,1,0,0.00
2013-6-15,78.3,66.5,55.5,63.2,58.2,51.8,94,76,51,30.03,29.86,9,1,13,0.00
2013-6-16,80.7,70.4,62.7,66.2,61.2,52.6,96,75,40,29.87,29.70,13,3,17,0.30
2013-6-17,86.4,73.0,62.5,64.0,58.3,54.2,82,62,35,29.86,29.76,10,2,0,0.00
2013-6-18,73.4,63.7,53.4,58.8,52.2,42.3,96,69,40,30.02,29.82,6,0,0,0.10
2013-6-19,80.3,63.6,49.2,56.0,48.2,39.4,82,60,37,30.13,30.01,5,0,0,0.00
2013-6-20,86.7,67.7,50.9,60.0,53.9,48.9,94,66,35,30.17,30.08,5,0,0,0.00
2013-6-21,87.5,72.0,57.6,68.1,60.0,52.5,86,68,45,30.15,29.98,6,0,0,0.00
2013-6-22,87.3,75.2,66.5,74.2,67.0,59.6,89,76,63,30.03,29.91,9,1,13,0.06
2013-6-23,91.2,79.4,68.3,70.8,51.0,-99.9,93,71,47,29.99,29.89,11,1,15,0.00
2013-6-24,89.6,76.7,65.8,72.4,67.9,62.9,92,75,52,29.99,29.84,11,1,15,0.00
2013-6-25,85.7,73.7,67.0,74.3,68.0,63.3,95,83,62,29.91,29.75,14,2,19,0.40
2013-6-26,87.9,74.7,65.4,73.2,68.1,64.0,97,81,57,29.83,29.67,8,1,0,0.15
2013-6-27,86.6,72.4,65.6,73.6,68.6,63.5,96,88,60,29.69,29.56,8,0,13,1.16
2013-6-28,75.7,66.7,63.6,68.0,64.0,60.2,97,91,69,29.58,29.45,8,1,12,0.48
2013-6-29,78.5,67.7,62.2,66.0,62.0,56.7,97,83,60,29.68,29.48,4,0,0,0.01
2013-6-30,79.4,69.0,59.8,63.4,58.4,46.7,92,71,50,29.89,29.67,5,1,0,0.00
2013-7-1,66.4,62.0,57.8,60.1,55.2,47.0,95,79,56,30.01,29.88,3,0,0,0.29
2013-7-2,75.0,65.7,57.7,64.6,49.2,-99.9,92,81,68,30.02,29.96,3,0,0,0.01
2013-7-3,85.4,71.4,58.8,70.4,64.2,56.8,96,80,52,30.04,29.98,6,0,0,0.00
2013-7-4,81.2,73.7,68.0,68.3,65.8,62.2,95,78,57,30.06,30.00,8,1,0,0.00
2013-7-5,87.8,76.2,68.7,69.5,66.2,59.4,95,74,44,30.04,29.97,6,0,0,0.00
2013-7-6,87.5,73.8,67.1,72.4,68.3,64.9,96,84,59,30.04,29.92,4,0,0,0.06
2013-7-7,83.6,74.0,69.4,71.0,57.8,-99.9,96,84,58,29.96,29.88,9,2,0,0.00
2013-7-8,84.0,73.1,66.4,75.8,59.4,-99.9,95,87,74,29.97,29.89,15,0,17,0.53
2013-7-9,88.7,76.1,70.8,73.9,70.8,69.4,97,85,57,29.92,29.80,16,1,21,0.03
2013-7-10,86.9,77.1,65.0,75.8,57.7,-99.9,97,79,55,29.87,29.69,15,2,18,0.14
2013-7-11,81.0,68.6,58.7,60.0,56.9,54.3,89,68,44,30.00,29.87,6,1,0,0.00
2013-7-12,85.5,69.1,55.4,64.3,58.8,53.6,96,73,43,30.10,30.00,3,0,0,0.00
2013-7-13,88.1,73.9,59.6,66.5,61.7,56.1,96,69,39,30.15,30.07,3,0,0,0.00
2013-7-14,92.5,78.1,64.4,74.2,68.5,62.2,96,74,47,30.19,30.13,3,0,0,0.00
2013-7-15,94.7,78.3,69.8,78.6,72.5,67.7,96,84,55,30.22,30.14,5,0,0,0.60
2013-7-16,91.5,81.5,73.6,79.7,62.1,-99.9,97,83,64,30.23,30.15,10,1,0,0.01
2013-7-17,91.4,82.9,75.1,78.0,74.9,71.6,90,78,60,30.20,30.06,11,2,0,0.00
2013-7-18,92.1,83.3,74.7,77.8,73.8,70.2,90,74,52,30.08,29.87,12,1,16,0.00
2013-7-19,92.4,83.1,76.0,75.9,73.5,66.2,92,74,51,29.88,29.63,15,2,21,0.10
2013-7-20,87.5,76.0,67.5,74.6,65.8,58.4,95,73,40,29.85,29.64,12,1,19,0.26
2013-7-21,88.6,73.6,61.9,65.5,61.2,54.5,87,67,43,29.94,29.84,6,0,0,0.00
2013-7-22,86.6,74.3,66.5,70.1,65.3,62.2,89,75,50,29.90,29.69,3,0,0,0.00
2013-7-23,82.0,70.1,59.5,74.0,65.6,51.6,96,86,63,29.81,29.60,14,1,25,0.61
2013-7-24,73.9,64.2,56.1,55.6,51.9,48.7,82,65,48,29.99,29.81,6,0,0,0.00
2013-7-25,81.1,64.6,50.3,59.0,53.2,48.6,96,70,39,30.06,29.99,7,0,0,0.00
2013-7-26,81.1,68.0,56.9,61.5,57.8,53.7,90,72,47,30.05,29.84,5,0,0,0.00
2013-7-27,73.0,64.9,55.4,66.6,61.7,51.3,94,90,75,29.85,29.67,14,1,17,0.28
2013-7-28,65.5,57.1,49.4,55.4,42.0,-99.9,94,82,63,29.93,29.77,11,1,13,0.01
2013-7-29,69.0,60.4,55.0,57.4,54.2,51.5,90,81,63,30.13,29.93,10,1,13,0.00
2013-7-30,81.7,66.3,53.7,61.2,57.3,51.8,96,75,45,30.19,30.07,5,0,0,0.00
2013-7-31,75.7,67.1,62.1,67.2,50.8,-99.9,96,90,71,30.07,29.83,9,0,0,0.32
2013-8-1,76.6,67.0,62.5,64.3,50.7,-99.9,95,82,54,29.86,29.82,10,2,13,0.01
2013-8-2,73.9,64.9,56.9,64.1,59.0,53.5,92,82,62,29.87,29.79,12,2,14,0.00
2013-8-3,78.2,68.3,59.0,63.9,46.0,-99.9,96,72,45,29.99,29.83,8,1,12,0.00
2013-8-4,74.5,63.0,53.6,57.8,43.6,-99.9,93,74,50,30.10,29.99,8,1,0,0.00
2013-8-5,71.2,62.7,54.4,58.1,54.2,50.6,89,75,54,30.07,29.92,7,0,0,0.00
2013-8-6,78.9,68.3,62.2,68.1,57.9,-99.9,96,85,66,29.92,29.83,4,0,0,0.06
2013-8-7,84.5,71.6,64.1,73.1,58.8,-99.9,100,87,66,29.85,29.75,7,0,14,0.07
2013-8-8,81.5,70.4,64.8,70.5,63.8,59.6,91,80,56,29.95,29.83,3,0,0,0.00
2013-8-9,80.5,68.8,58.2,62.1,57.9,54.5,89,70,47,29.94,29.88,10,1,0,0.00
2013-8-10,79.4,68.9,59.9,62.2,59.4,56.2,93,74,48,30.07,29.94,4,0,0,0.00
2013-8-11,78.5,67.1,55.8,63.8,50.6,-99.9,94,75,51,30.07,29.97,10,1,0,0.00
2013-8-12,70.3,66.1,63.0,67.9,49.8,-99.9,96,90,78,30.00,29.78,7,0,0,0.73
2013-8-13,68.0,61.1,53.9,63.8,44.7,-99.9,96,77,48,30.00,29.76,12,2,15,0.00
2013-8-14,71.1,58.5,47.7,53.4,38.6,-99.9,94,73,45,30.12,30.00,9,1,0,0.00
2013-8-15,74.9,61.6,51.0,55.8,39.5,-99.9,92,72,44,30.13,30.04,8,1,0,0.00
2013-8-16,81.9,66.9,54.7,59.6,43.8,-99.9,91,69,42,30.15,30.06,4,0,0,0.00
2013-8-17,82.1,67.6,54.7,61.4,46.3,-99.9,95,70,35,30.22,30.13,2,0,0,0.00
2013-8-18,85.5,67.7,57.2,66.7,46.6,-99.9,97,76,40,30.17,30.05,2,0,0,0.00
2013-8-19,83.1,68.9,56.4,63.1,47.3,-99.9,94,70,32,30.06,29.98,11,1,13,0.00
2013-8-20,86.2,74.4,63.6,68.1,50.2,-99.9,88,70,49,30.08,30.00,8,1,0,0.00
2013-8-21,87.2,75.2,63.4,70.8,55.5,-99.9,92,76,56,30.07,29.92,7,0,0,0.00
2013-8-22,81.4,74.3,69.2,69.1,65.3,-99.9,92,79,61,29.96,29.87,9,2,0,0.00
2013-8-23,85.0,70.8,59.3,67.4,44.0,-99.9,93,64,34,30.15,29.96,6,0,0,0.00
2013-8-24,82.8,68.2,55.4,65.7,47.8,-99.9,96,74,43,30.25,30.14,3,0,0,0.00
2013-8-25,86.0,71.8,55.5,66.2,51.5,-99.9,96,72,46,30.24,30.08,10,1,13,0.00
2013-8-26,86.1,77.2,68.0,73.7,57.6,-99.9,89,73,63,30.09,29.89,13,3,14,0.00
2013-8-27,82.8,76.1,70.4,75.9,57.8,-99.9,96,89,76,29.92,29.76,8,0,12,0.23
2013-8-28,84.8,76.4,69.4,74.4,50.1,-99.9,96,87,66,29.93,29.70,11,1,21,0.32
2013-8-29,87.5,74.8,64.9,73.8,59.0,-99.9,97,84,53,30.00,29.92,3,0,0,0.01
2013-8-30,87.1,75.3,64.5,72.1,56.3,-99.9,97,81,58,29.94,29.66,12,1,14,0.31
2013-8-31,79.6,73.0,68.0,71.4,53.7,-99.9,97,87,69,29.78,29.67,4,0,0,0.01
2013-9-1,83.8,71.9,65.9,73.4,51.2,-99.9,94,86,70,29.79,29.65,3,0,0,0.02
2013-9-2,74.1,68.1,58.1,70.3,48.7,-99.9,94,81,64,29.85,29.65,12,3,13,0.00
2013-9-3,74.5,63.0,55.6,58.0,41.8,-99.9,87,73,52,29.96,29.84,9,2,12,0.00
2013-9-4,79.9,67.6,56.0,63.7,48.4,-99.9,91,75,53,30.02,29.94,13,4,15,0.00
2013-9-5,73.5,62.6,51.3,62.6,39.8,-99.9,93,72,43,30.21,30.00,6,1,0,0.00
2013-9-6,77.9,59.5,44.3,53.7,34.7,-99.9,96,69,33,30.24,30.02,8,0,0,0.00
2013-9-7,78.6,67.9,56.9,69.7,57.3,-99.9,93,78,65,30.02,29.83,11,1,13,0.07
2013-9-8,74.3,67.7,53.8,66.8,41.8,-99.9,92,75,52,30.02,29.86,7,0,0,0.00
2013-9-9,75.1,63.0,51.8,69.9,47.9,-99.9,95,90,80,30.02,29.85,1,0,0,0.06
2013-9-10,92.6,80.8,67.9,74.1,60.5,-99.9,96,72,43,29.94,29.83,14,1,19,0.00
2013-9-11,90.6,78.4,68.4,73.9,55.0,-99.9,95,74,57,29.95,29.81,19,2,20,0.46
2013-9-12,76.0,66.9,53.8,67.2,41.1,-99.9,96,83,50,29.89,29.76,12,2,16,0.27
2013-9-13,59.5,53.3,42.4,51.1,33.0,-99.9,91,73,52,30.09,29.89,11,2,14,0.00
2013-9-14,70.5,52.5,40.7,49.1,28.4,-99.9,93,71,38,30.16,30.05,8,1,0,0.00
2013-9-15,61.6,54.4,47.5,54.0,38.3,-99.9,95,85,65,30.08,30.01,5,0,0,0.07
2013-9-16,64.2,55.0,45.0,53.0,25.8,-99.9,95,81,54,30.33,30.08,6,0,0,0.00
2013-9-17,67.8,51.4,38.4,53.1,30.3,-99.9,96,80,50,30.37,30.19,4,0,0,0.00
2013-9-18,76.3,58.5,46.0,57.2,39.2,-99.9,96,79,48,30.19,29.99,5,0,0,0.00
2013-9-19,79.9,67.2,57.2,69.6,47.3,-99.9,96,87,68,30.00,29.85,4,0,0,0.00
2013-9-20,80.1,70.8,66.8,72.2,46.0,-99.9,97,90,71,29.86,29.66,11,1,14,0.24
2013-9-21,66.9,61.7,53.6,65.4,25.2,-99.9,96,81,54,29.81,29.60,15,3,16,0.04
2013-9-22,59.0,51.5,44.0,45.3,25.5,-99.9,92,71,55,30.05,29.81,9,1,0,0.00
2013-9-23,63.8,49.1,38.5,47.2,27.3,-99.9,96,80,53,30.17,30.05,4,0,0,0.00
2013-9-24,68.4,53.0,42.0,51.6,32.3,-99.9,96,80,52,30.12,29.96,3,0,0,0.00
2013-9-25,70.0,55.3,44.9,56.2,32.0,-99.9,97,81,50,29.98,29.91,3,0,0,0.01
2013-9-26,78.5,58.6,47.2,57.5,29.4,-99.9,97,76,39,30.10,29.96,2,0,0,0.00
2013-9-27,74.8,60.1,49.2,59.2,35.9,-99.9,97,80,52,30.19,30.09,2,0,0,0.00
2013-9-28,75.7,62.5,52.1,61.7,36.7,-99.9,100,81,50,30.15,29.96,4,0,0,0.00
2013-9-29,62.7,59.3,57.2,61.2,41.8,-99.9,96,91,85,29.97,29.90,2,0,0,0.11
2013-9-30,70.4,60.9,55.2,59.9,4.3,-99.9,97,84,52,29.96,29.87,10,0,14,0.00
2013-10-1,70.2,60.9,52.2,63.4,44.1,-99.9,97,90,77,29.97,29.89,9,1,13,0.00
2013-10-2,79.5,65.9,55.0,61.1,35.0,-99.9,94,70,33,30.03,29.89,9,1,0,0.00
2013-10-3,76.8,65.0,53.6,68.3,45.9,-99.9,95,84,73,30.01,29.87,8,0,0,0.00
2013-10-4,79.2,69.9,63.4,69.1,39.8,-99.9,95,86,70,29.96,29.88,9,1,13,0.01
2013-10-5,71.9,67.1,63.9,69.6,44.7,-99.9,97,95,88,29.98,29.80,2,0,0,0.08
2013-10-6,69.2,64.6,53.7,67.5,40.4,-99.9,97,95,86,29.80,29.55,21,1,26,0.25
2013-10-7,58.5,52.0,45.0,53.1,15.5,-99.9,97,86,64,30.07,29.62,15,3,18,0.01
2013-10-8,66.0,53.8,45.1,47.6,25.3,-99.9,90,73,46,30.25,30.07,4,0,0,0.00
2013-10-9,69.1,54.2,43.3,56.6,30.1,-99.9,97,78,45,30.28,30.17,3,0,0,0.00
2013-10-10,71.3,55.3,45.5,55.0,28.8,-99.9,97,77,43,30.19,30.08,2,0,0,0.00
2013-10-11,74.1,55.0,43.7,53.5,29.0,-99.9,97,75,36,30.11,30.03,2,0,0,0.01
2013-10-12,75.8,60.6,49.8,62.0,34.1,-99.9,97,82,37,30.06,29.99,4,0,0,0.00
2013-10-13,65.9,59.0,48.1,59.3,26.6,-99.9,96,69,35,30.29,30.03,12,1,13,0.00
2013-10-14,63.8,51.4,43.6,45.6,22.2,-99.9,94,76,49,30.36,30.23,7,0,0,0.00
2013-10-15,65.0,53.0,41.7,60.1,36.8,-99.9,97,92,77,30.24,29.79,4,0,0,0.04
2013-10-16,61.6,56.2,50.6,60.4,20.9,-99.9,96,85,66,29.86,29.75,15,3,17,0.00
2013-10-17,52.1,49.3,46.2,48.9,21.0,-99.9,95,91,87,29.85,29.71,12,1,14,0.21
2013-10-18,61.3,50.2,41.1,46.8,20.8,-99.9,96,78,47,29.88,29.80,12,2,20,0.00
2013-10-19,46.8,42.8,38.7,42.2,20.9,-99.9,94,89,80,29.86,29.70,12,2,14,0.15
2013-10-20,57.5,46.4,35.7,44.3,26.2,-99.9,95,79,52,29.88,29.80,9,1,12,0.01
2013-10-21,53.9,49.2,39.6,48.0,17.2,-99.9,92,80,69,29.82,29.75,11,2,16,0.10
2013-10-22,47.3,41.1,34.5,36.4,1.3,-99.9,83,67,52,29.88,29.79,18,3,18,0.00
2013-10-23,45.2,38.1,32.2,35.3,7.7,-99.9,95,76,44,29.90,29.78,11,2,16,0.00
2013-10-24,45.2,36.4,30.1,33.9,10.1,-99.9,93,80,51,30.14,29.89,12,4,18,0.00
2013-10-25,44.6,36.6,29.6,35.3,11.1,-99.9,94,80,57,30.30,30.08,12,2,15,0.00
2013-10-26,48.9,41.3,36.7,38.5,6.7,-99.9,93,71,58,30.08,29.74,15,3,21,0.08
2013-10-27,52.5,40.4,32.5,36.6,5.0,-99.9,92,74,49,30.04,29.95,10,1,14,0.01
2013-10-28,50.2,42.3,37.9,40.1,14.7,-99.9,84,73,65,30.37,30.00,6,1,0,0.00
2013-10-29,48.7,41.5,35.9,36.2,6.4,-99.9,86,73,57,30.41,30.22,3,0,0,0.00
2013-10-30,62.3,47.2,34.1,48.8,18.2,-99.9,96,79,53,30.22,29.92,4,0,0,0.16
2013-10-31,60.5,57.2,50.9,59.4,-3.8,-99.9,100,96,93,29.93,29.11,9,2,19,1.00
2013-11-1,56.9,50.6,44.5,42.1,-14.0,-99.9,96,87,71,29.62,29.06,23,4,28,0.00
2013-11-2,46.3,42.4,34.1,43.4,12.7,-99.9,95,92,82,30.07,29.61,9,1,12,0.08
2013-11-3,43.1,35.5,30.4,36.6,10.6,-99.9,96,87,68,30.43,30.06,2,0,0,0.00
2013-11-4,48.0,38.4,28.6,37.0,10.6,-99.9,94,77,47,30.46,30.28,7,1,0,0.01
2013-11-5,52.4,47.4,40.7,47.9,14.7,-99.9,91,83,75,30.33,30.13,6,1,0,0.00
2013-11-6,55.2,50.3,42.2,52.3,9.8,-99.9,93,86,77,30.14,29.75,18,3,23,0.10
2013-11-7,43.6,39.1,33.5,38.0,-7.3,-99.9,93,76,51,30.09,29.93,17,4,21,0.03
2013-11-8,43.2,34.9,29.6,32.0,6.4,-99.9,93,78,51,30.26,30.08,13,2,13,0.00
2013-11-9,55.0,45.3,34.6,42.2,14.0,-99.9,84,70,57,30.16,29.76,21,5,32,0.00
2013-11-10,47.5,42.2,35.4,39.7,4.9,-99.9,85,66,55,30.23,29.85,20,5,29,0.00
2013-11-11,41.2,34.8,26.7,37.9,4.5,-99.9,94,84,74,30.28,29.99,12,4,18,0.16
2013-11-12,32.5,27.0,22.9,22.6,-8.1,-99.9,83,69,54,30.52,30.28,18,4,21,0.00
2013-11-13,39.6,29.0,18.7,24.0,-2.6,-99.9,87,65,31,30.53,30.13,15,4,19,0.00
2013-11-14,49.4,38.3,30.0,28.0,0.4,-99.9,69,53,42,30.15,29.94,14,4,18,0.00
2013-11-15,49.6,42.1,35.8,32.1,5.0,-99.9,74,57,46,30.04,29.96,12,2,13,0.00
2013-11-16,55.7,45.3,34.9,52.5,16.2,-99.9,90,84,73,30.07,29.77,9,2,16,0.00
2013-11-17,61.5,56.3,46.8,59.1,19.2,-99.9,95,90,69,29.77,29.17,36,5,44,0.60
2013-11-18,46.7,39.7,33.6,41.3,-9.4,-99.9,82,72,65,30.09,29.40,33,11,40,0.00
2013-11-19,43.1,33.3,26.2,24.8,-9.6,-99.9,85,67,45,30.39,30.09,17,3,17,0.00
2013-11-20,44.8,33.7,21.8,33.1,3.5,-99.9,93,74,44,30.42,30.22,9,2,0,0.00
2013-11-21,46.7,42.0,37.3,42.8,0.0,-99.9,95,79,71,30.27,30.17,10,2,12,0.17
2013-11-22,44.6,36.2,27.1,43.5,8.3,-99.9,96,78,38,30.33,30.09,13,3,21,0.04
2013-11-23,27.6,23.1,16.1,24.0,-2.7,-99.9,91,76,52,30.50,30.24,19,5,21,0.00
2013-11-24,23.2,17.3,13.0,14.2,-5.9,-99.9,86,73,53,30.58,30.41,17,4,17,0.00
2013-11-25,29.7,23.9,16.9,25.0,-3.3,-99.9,86,70,57,30.41,30.07,16,4,17,0.00
2013-11-26,32.8,30.2,27.9,27.8,26.4,24.3,90,86,81,30.10,29.91,11,2,15,0.00
2013-11-27,28.1,22.5,17.7,24.2,14.5,9.8,88,71,57,30.18,29.89,18,4,21,0.00
2013-11-28,26.7,21.4,16.2,20.9,15.8,11.0,90,79,65,30.42,30.18,9,2,0,0.00
2013-11-29,32.6,22.9,13.5,23.6,17.7,11.1,93,81,59,30.65,30.42,5,0,0,0.00
2013-11-30,43.1,32.8,24.6,29.7,25.8,21.0,86,76,58,30.55,30.08,9,2,12,0.00
2013-12-1,42.3,35.2,29.4,35.0,30.3,25.7,92,83,72,30.08,29.95,9,1,0,0.00
2013-12-2,37.2,32.1,25.7,30.9,25.6,20.2,92,78,56,29.97,29.86,6,0,0,0.00
2013-12-3,37.1,33.2,26.0,35.5,30.5,21.6,94,90,82,29.90,29.82,5,2,0,0.01
2013-12-4,53.6,45.3,37.1,51.0,43.3,35.5,96,93,88,29.88,29.59,7,1,0,0.03
2013-12-5,57.4,42.0,29.3,54.5,35.4,21.5,92,77,66,30.11,29.57,22,6,25,0.00
2013-12-6,29.2,24.9,18.8,22.3,17.4,12.6,78,73,68,30.38,30.07,10,3,16,0.00
2013-12-7,23.0,18.3,13.0,13.2,9.6,7.7,79,69,56,30.61,30.38,15,3,18,0.00
2013-12-8,28.0,18.4,10.2,26.2,13.8,6.3,93,82,67,30.59,29.99,8,2,0,0.00
2013-12-9,28.6,25.3,18.9,27.1,20.9,11.4,94,83,71,30.08,29.86,22,6,24,0.00
2013-12-10,20.6,16.7,9.9,16.6,8.8,1.0,87,71,48,30.18,29.94,23,6,27,0.00
2013-12-11,21.7,16.5,6.3,16.9,10.8,1.1,88,78,69,30.44,30.17,19,4,19,0.00
2013-12-12,19.6,11.8,2.5,14.2,4.9,-1.1,87,74,47,30.44,30.17,20,4,22,0.00
2013-12-13,27.4,23.2,19.4,20.3,17.8,14.2,84,80,73,30.28,30.14,14,3,17,0.00
2013-12-14,20.6,17.9,15.6,18.9,15.2,10.8,93,89,72,30.27,29.80,11,4,0,0.00
2013-12-15,23.8,18.7,13.8,22.1,15.2,8.7,93,86,73,30.01,29.79,27,5,27,0.00
2013-12-16,22.8,14.2,7.4,12.6,9.0,4.4,90,80,58,30.17,30.00,9,2,12,0.00
2013-12-17,26.2,21.9,14.2,23.2,19.1,12.1,93,89,83,30.00,29.87,11,3,14,0.00
2013-12-18,29.3,25.1,20.4,24.2,20.7,15.2,93,83,71,30.09,29.88,17,4,17,0.00
2013-12-19,39.9,32.3,24.1,33.8,27.0,16.8,93,81,72,29.98,29.85,9,2,0,0.14
2013-12-20,37.3,34.1,32.5,36.3,32.9,31.0,96,96,93,29.89,29.70,6,1,0,0.38
2013-12-21,33.7,32.9,31.9,32.9,32.0,31.1,97,97,96,29.84,29.63,8,2,0,0.64
2013-12-22,36.0,33.2,32.0,33.9,31.9,30.5,97,95,90,29.93,29.51,16,2,19,0.19
2013-12-23,31.9,27.1,19.8,30.4,23.0,13.2,94,84,71,30.28,29.93,15,4,17,0.00
2013-12-24,19.8,12.9,6.3,13.1,7.6,3.7,90,79,64,30.54,30.27,15,4,20,0.00
2013-12-25,23.4,17.5,6.9,21.4,14.5,4.1,92,88,81,30.50,30.11,9,2,0,0.00
2013-12-26,26.2,24.4,23.1,24.3,20.2,15.8,94,84,71,30.27,30.02,20,4,22,0.00
2013-12-27,37.6,31.8,23.1,31.8,28.0,20.4,93,86,76,30.30,30.04,14,3,15,0.02
2013-12-28,46.4,39.5,33.6,36.5,32.8,29.4,85,77,65,30.09,29.86,12,4,14,0.00
2013-12-29,41.2,33.4,20.0,32.8,28.0,15.4,92,81,70,29.97,29.65,20,3,20,0.00
2013-12-30,19.9,17.1,14.0,15.3,8.8,4.4,82,70,62,30.25,29.97,13,2,17,0.00
2013-12-31,18.9,15.4,13.6,14.4,10.1,5.2,89,80,66,30.32,30.05,25,6,25,0.00
2014-1-1,14.3,11.7,9.8,11.7,8.7,5.4,91,87,81,30.39,30.23,8,2,0,0.00
2014-1-2,13.7,10.2,1.5,11.6,7.2,-3.6,91,88,77,30.27,30.08,14,5,19,0.00